This is the latest recevied weather packets stored in our database for station/object F8BPU-10. If no packets are shown the sender has not sent any weather packets the latest 10 day(s).
| Time | Temp. | Humidity | Pressure | Rain* | Wind** | Luminosity | Snow |
|---|---|---|---|---|---|---|---|
| 1778030427 | 26.11° C | 32% | 1009.7 hPa | - | - | - | - |
| 1778029527 | 26.11° C | 32% | 1009.7 hPa | - | - | - | - |
| 1778028627 | 26.11° C | 32% | 1009.7 hPa | - | - | - | - |
| 1778027727 | 26.11° C | 32% | 1009.6 hPa | - | - | - | - |
| 1778026827 | 26.11° C | 32% | 1009.8 hPa | - | - | - | - |
| 1778025927 | 26.11° C | 32% | 1009.9 hPa | - | - | - | - |
| 1778025027 | 26.11° C | 32% | 1009.9 hPa | - | - | - | - |
| 1778024127 | 26.11° C | 32% | 1010 hPa | - | - | - | - |
| 1778023227 | 26.11° C | 33% | 1010 hPa | - | - | - | - |
| 1778022327 | 26.11° C | 33% | 1009.9 hPa | - | - | - | - |
| 1778021426 | 25.56° C | 33% | 1010 hPa | - | - | - | - |
| 1778020526 | 25.56° C | 33% | 1010.1 hPa | - | - | - | - |
| 1778019626 | 25.56° C | 33% | 1010 hPa | - | - | - | - |
| 1778018726 | 25.56° C | 33% | 1010.2 hPa | - | - | - | - |
| 1778017826 | 25° C | 34% | 1010.1 hPa | - | - | - | - |
| 1778016926 | 23.89° C | 35% | 1010.2 hPa | - | - | - | - |
| 1778016026 | 23.89° C | 35% | 1010.3 hPa | - | - | - | - |
| 1778015126 | 24.44° C | 35% | 1010.3 hPa | - | - | - | - |
| 1778014226 | 25° C | 34% | 1010.3 hPa | - | - | - | - |
| 1778013326 | 25.56° C | 33% | 1010.2 hPa | - | - | - | - |
| 1778012425 | 26.67° C | 32% | 1010.1 hPa | - | - | - | - |
| 1778011524 | 27.22° C | 32% | 1010 hPa | - | - | - | - |
| 1778010624 | 27.22° C | 32% | 1009.9 hPa | - | - | - | - |
| 1778009724 | 27.22° C | 32% | 1009.7 hPa | - | - | - | - |
| 1778008824 | 27.22° C | 32% | 1009.5 hPa | - | - | - | - |
* Rain since midnight (hover to see other rain measurements)
** Current wind speed in m/s (hover to see current wind gust speed)